Location: Ústí nad Labem
(50.6611°N, 14.0531°E)
Time: 02:07:33
(UTC+02:00)

S-56A Canister/Altair - Pass Details

Date: 19 April 2024
Orbit: 638 x 2488 km, 38.9° (Epoch: 28 May)

Event Time Altitude Azimuth Distance (km) Brightness Sun altitude
Rises 00:07:47 0° 269° (W) 4,485 11.6 -26.9°
Reaches altitude 10° 00:11:21 10° 255° (WSW) 3,800 11.0 -27.1°
Enters shadow 00:17:03 21° 220° (SW) 3,393 10.4 -27.3°
